User: anonymous
Location: Oshawa
(43.9000°N, 78.8670°W)
Time: 12:18:59
(UTC-04:00)
Language:

Cosmos 2333 Rocket - Orbit

View from above orbital plane
View from above orbital plane
View from above satellite
View from above satellite

Ground track
Ground track

The orbit data is extracted from the following two-line orbital elements,

1 24298U 96051B   14107.88437961 -.00000047  00000-0  47414-6 0  4314
2 24298 070.8716 338.8821 0013526 107.9825 333.7930 14.12487210908553
Epoch (UTC): 17 April 2014 21:13:30
Eccentricity: 0.0013526
inclination: 70.8716°
perigee height: 841 km
apogee height: 860 km
right ascension of ascending node: 338.8821°
argument of perigee: 107.9825°
revolutions per day: 14.12487210
mean anomaly at epoch: 333.7930°
orbit number at epoch: 90855

The dashed part of the orbit path shows where the satellite is in the earth's shadow,  

DLR